Showing default

LEMUR 2 AFFIE-WAUWIE, 66295

Orbit data source: Space-Track

LEMUR 2 AFFIE-WAUWIE, 66295 is a payload satellite owned by Spire (US) in LEO that was launched on Sun, 02 Nov 2025 UTC via an FALCON 9 launch vehicle from the Air Force Eastern Test Range (AFETR). Payload-class satellites include a variety of spacecraft equipped with specific instruments for various scientific and technological missions. These include communications satellites like Starlink; space stations such as the ISS; scientific satellites like the Hubble; Earth observation satellites from companies like Planet Labs, Umbra, and HawkEye 360; GPS; miniature CubeSats for education and research; and military/defense satellites.

Loading next visibility...
Identifier
66295, 2025-248C
Orbit
LEO
Country
Flag of USUS
Related business
Manufacturer
Spire/Glasgow
Mission
Operational Commercial Communications
Bus & Motor
CUBESAT 3U, Unknown motor
Mass
7.6 kg wet, 7.6 kg dry
Launch date (UTC)
2025-11-02 (8 months ago)
Launch vehicle
FALCON 9
Launch site
Air Force Eastern Test Range (AFETR)
Object type
Payload
Rocket body
Debris
Shape & HBR
Box, 0.1 m
Radar Cross Section
0.008 m², Medium (>0.1 m² and < 1m²)

Expand to show TLE details & history
Last TLE update: 16 hours ago

TLE from 16 hours ago
0 LEMUR 2 AFFIE-WAUWIE
1 66295U 25248C   26171.19549890  .00016094  00000-0  60139-3 0  9993
2 66295  45.3922  98.6890 0007305 104.5584 255.6116 15.27237753 35058
Epoch: 2026-06-20T04:41Z
TLE epoch observation values (Epoch: 2026-06-20T04:41:31.104Z)
Latitude
-0.00001°
Longitude
119.89579°
Altitude
485.366 km
Speed
7.624 km/s
True Right ascension
06h 34m 45s
True Declination
0° 00' 00"
Sunlit
Object was in daylight at epoch
Visualization orbit readout
Latitude
Unknown
Longitude
Unknown
Altitude
Unknown
Speed
Unknown
Apparent Right ascension
Unknown
Apparent Declination
Unknown
Sunlit
N/A
Visualization observer readout
Local Sidereal Time
07:17:50
Azimuth
Unknown
Elevation
Unknown
Doppler factor
Unknown
Orbital elements
Apogee altitude
490.631 km
Perigee altitude
480.603 km
Semi-major axis
6,863.754 km
Eccentricity
0.00073
Inclination
45.3922°
RAAN
98.689°
Arg. of periapsis
104.5584°
True anomaly
255.53053°
Mean anomaly
255.6116°
Eccentric anomaly
255.57107°
Mean motion
3.81681 °/min
Orbital period
94.32 mins
BSTAR
0.00060139
Loading maneuver chart data...
Computing Atmospheric mass density...
Loading historical data...
Loading historical data...
Loading historical data...
Loading historical data...
Loading historical data...
Loading historical data...
Loading historical data...

Documentation

Showing up to 5 results
|